Location: Passau
(48.5830°N, 13.4830°E)
Time: 20:25:28
(UTC+02:00)

Vanguard 3 - Pass Details

Date: 21 May 2024
Orbit: 509 x 3231 km, 33.3° (Epoch: 15 June)

Event Time Altitude Azimuth Distance (km) Brightness Sun altitude
Rises 18:16:40 0° 189° (S) 3,960 10.7 22.6°
Reaches altitude 10° 18:20:38 10° 166° (SSE) 3,465 10.2 22.0°
Maximum altitude 18:25:18 15° 135° (SE) 3,601 10.1 21.2°
Drops below altitude 10° 18:31:14 10° 106° (ESE) 4,621 10.5 20.3°
Sets 18:38:08 0° 88° (E) 6,246 11.1 19.1°
